| time (UTC) | temp C | wind direction | speed KPH | gust KPH | rain 1hr cm | rain 24hr cm | rain mn cm | humidity % | barometer mb |
| 20260508165206 | 20 | 48 | 1.6 | 3.2 | 0.00 | 0.00 | 0.00 | 42 | 1016.9 |
| 20260508164702 | 20 | 342 | 0.0 | 1.6 | 0.00 | 0.00 | 0.00 | 48 | 1016.9 |
| 20260508164159 | 19 | 3 | 1.6 | 4.8 | 0.00 | 0.00 | 0.00 | 41 | 1017.1 |
| 20260508163657 | 19 | 347 | 0.0 | 3.2 | 0.00 | 0.00 | 0.00 | 41 | 1017.1 |
| 20260508163154 | 18 | 295 | 0.0 | 3.2 | 0.00 | 0.00 | 0.00 | 49 | 1017.2 |
| 20260508162649 | 18 | 353 | 0.0 | 1.6 | 0.00 | 0.00 | 0.00 | 42 | 1017.2 |
| 20260508162147 | 20 | 329 | 0.0 | 3.2 | 0.00 | 0.00 | 0.00 | 47 | 1017.1 |
| 20260508161644 | 19 | 307 | 1.6 | 1.6 | 0.00 | 0.00 | 0.00 | 44 | 1017.3 |
| 20260508161142 | 18 | 323 | 0.0 | 3.2 | 0.00 | 0.00 | 0.00 | 51 | 1017.3 |
| 20260508160639 | 18 | 325 | 1.6 | 3.2 | 0.00 | 0.00 | 0.00 | 47 | 1017.4 |
| 20260508160137 | 18 | 311 | 1.6 | 1.6 | 0.00 | 0.00 | 0.00 | 50 | 1017.5 |
| 20260508155634 | 18 | 297 | 1.6 | 1.6 | 0.00 | 0.00 | 0.00 | 48 | 1017.6 |
| 20260508155131 | 20 | 323 | 0.0 | 0.0 | 0.00 | 0.00 | 0.00 | 50 | 1017.6 |
| 20260508154628 | 18 | 290 | 0.0 | 1.6 | 0.00 | 0.00 | 0.00 | 49 | 1017.7 |
| 20260508154124 | 17 | 48 | 0.0 | 4.8 | 0.00 | 0.00 | 0.00 | 53 | 1017.7 |
| 20260508153621 | 18 | 57 | 1.6 | 4.8 | 0.00 | 0.00 | 0.00 | 49 | 1017.8 |
| 20260508153118 | 17 | 74 | 1.6 | 3.2 | 0.00 | 0.00 | 0.00 | 51 | 1018.1 |
| 20260508152615 | 18 | 46 | 3.2 | 9.7 | 0.00 | 0.00 | 0.00 | 50 | 1018.0 |
| 20260508152109 | 18 | 46 | 0.0 | 3.2 | 0.00 | 0.00 | 0.00 | 52 | 1017.7 |
| 20260508151606 | 17 | 337 | 0.0 | 1.6 | 0.00 | 0.00 | 0.00 | 54 | 1017.7 |
| 20260508151058 | 17 | 263 | 3.2 | 3.2 | 0.00 | 0.00 | 0.00 | 52 | 1017.7 |
| 20260508150555 | 17 | 292 | 0.0 | 3.2 | 0.00 | 0.00 | 0.00 | 51 | 1017.8 |
| 20260508150051 | 18 | 17 | 1.6 | 4.8 | 0.00 | 0.00 | 0.00 | 51 | 1017.7 |
| 20260508145548 | 18 | 347 | 0.0 | 3.2 | 0.00 | 0.00 | 0.00 | 48 | 1017.7 |
| 20260508145044 | 19 | 40 | 8.0 | 9.7 | 0.00 | 0.00 | 0.00 | 47 | 1017.8 |
| 20260508144542 | 18 | 350 | 0.0 | 0.0 | 0.00 | 0.00 | 0.00 | 48 | 1018.0 |
| 20260508144039 | 17 | 0 | 0.0 | 1.6 | 0.00 | 0.00 | 0.00 | 54 | 1017.8 |
| 20260508143536 | 17 | 302 | 0.0 | 1.6 | 0.00 | 0.00 | 0.00 | 50 | 1018.0 |
| 20260508143033 | 16 | 3 | 0.0 | 1.6 | 0.00 | 0.00 | 0.00 | 48 | 1018.0 |
| 20260508142530 | 17 | 57 | 6.4 | 8.0 | 0.00 | 0.00 | 0.00 | 49 | 1018.0 |
| 20260508142026 | 16 | 17 | 3.2 | 4.8 | 0.00 | 0.00 | 0.00 | 52 | 1018.0 |
| 20260508141523 | 17 | 356 | 1.6 | 4.8 | 0.00 | 0.00 | 0.00 | 51 | 1018.2 |
| 20260508141021 | 17 | 21 | 3.2 | 3.2 | 0.00 | 0.00 | 0.00 | 52 | 1018.0 |
| 20260508140518 | 16 | 2 | 3.2 | 3.2 | 0.00 | 0.00 | 0.00 | 51 | 1018.1 |
| 20260508140014 | 16 | 34 | 1.6 | 4.8 | 0.00 | 0.00 | 0.00 | 49 | 1018.1 |
| 20260508135510 | 16 | 11 | 1.6 | 9.7 | 0.00 | 0.00 | 0.00 | 54 | 1018.2 |
| 20260508135006 | 16 | 23 | 0.0 | 1.6 | 0.00 | 0.00 | 0.00 | 58 | 1017.8 |
| 20260508134503 | 16 | 4 | 0.0 | 1.6 | 0.00 | 0.00 | 0.00 | 54 | 1018.0 |
| 20260508134000 | 16 | 337 | 1.6 | 3.2 | 0.00 | 0.00 | 0.00 | 54 | 1017.8 |
| 20260508133457 | 16 | 59 | 3.2 | 4.8 | 0.00 | 0.00 | 0.00 | 57 | 1018.0 |
| 20260508132954 | 16 | 233 | 0.0 | 4.8 | 0.00 | 0.00 | 0.00 | 59 | 1018.1 |
| 20260508132452 | 16 | 0 | 1.6 | 4.8 | 0.00 | 0.00 | 0.00 | 58 | 1018.0 |
| 20260508131948 | 16 | 29 | 4.8 | 4.8 | 0.00 | 0.00 | 0.00 | 61 | 1017.9 |
| 20260508131444 | 16 | 327 | 1.6 | 4.8 | 0.00 | 0.00 | 0.00 | 63 | 1017.8 |
| 20260508130941 | 17 | 8 | 1.6 | 3.2 | 0.00 | 0.00 | 0.00 | 66 | 1017.8 |
| 20260508130438 | 16 | 13 | 0.0 | 1.6 | 0.00 | 0.00 | 0.00 | 65 | 1017.6 |
| 20260508125933 | 15 | 7 | 0.0 | 3.2 | 0.00 | 0.00 | 0.00 | 67 | 1017.7 |
| 20260508125430 | 15 | 343 | 0.0 | 1.6 | 0.00 | 0.00 | 0.00 | 74 | 1017.9 |
| 20260508124928 | 15 | 341 | 0.0 | 1.6 | 0.00 | 0.00 | 0.00 | 74 | 1017.7 |
| 20260508124425 | 15 | 337 | 0.0 | 3.2 | 0.00 | 0.00 | 0.00 | 74 | 1017.6 |
| 20260508123923 | 14 | 341 | 1.6 | 4.8 | 0.00 | 0.00 | 0.00 | 76 | 1017.8 |
| 20260508123421 | 14 | 10 | 3.2 | 3.2 | 0.00 | 0.00 | 0.00 | 76 | 1017.5 |
| 20260508122917 | 13 | 353 | 0.0 | 1.6 | 0.00 | 0.00 | 0.00 | 81 | 1017.5 |
| 20260508122414 | 13 | 15 | 0.0 | 8.0 | 0.00 | 0.00 | 0.00 | 83 | 1017.4 |
| 20260508121911 | 13 | 357 | 1.6 | 3.2 | 0.00 | 0.00 | 0.00 | 83 | 1017.4 |
| 20260508121410 | 12 | 11 | 1.6 | 1.6 | 0.00 | 0.00 | 0.00 | 84 | 1017.3 |
| 20260508120907 | 12 | 1 | 0.0 | 1.6 | 0.00 | 0.00 | 0.00 | 84 | 1017.2 |
| 20260508120404 | 12 | 63 | 1.6 | 3.2 | 0.00 | 0.00 | 0.00 | 85 | 1017.2 |
| 20260508115902 | 11 | 345 | 1.6 | 1.6 | 0.00 | 0.00 | 0.00 | 89 | 1017.2 |
| 20260508115400 | 11 | 2 | 0.0 | 0.0 | 0.00 | 0.00 | 0.00 | 97 | 1017.3 |
| 20260508114855 | 10 | 356 | 0.0 | 0.0 | 0.00 | 0.00 | 0.00 | 99 | 1017.1 |
| 20260508114353 | 10 | 357 | 0.0 | 0.0 | 0.00 | 0.00 | 0.00 | 99 | 1016.8 |
| 20260508113849 | 10 | 357 | 0.0 | 0.0 | 0.00 | 0.00 | 0.00 | 99 | 1016.7 |
| 20260508113347 | 10 | 357 | 0.0 | 0.0 | 0.00 | 0.00 | 0.00 | 99 | 1016.8 |
| 20260508112844 | 9 | 357 | 0.0 | 0.0 | 0.00 | 0.00 | 0.00 | 99 | 1016.6 |
| 20260508112341 | 9 | 357 | 0.0 | 0.0 | 0.00 | 0.00 | 0.00 | 99 | 1016.5 |
| 20260508111837 | 9 | 357 | 0.0 | 0.0 | 0.00 | 0.00 | 0.00 | 99 | 1016.6 |
| 20260508111334 | 9 | 357 | 0.0 | 0.0 | 0.00 | 0.00 | 0.00 | 99 | 1016.3 |
| 20260508110832 | 8 | 357 | 0.0 | 0.0 | 0.00 | 0.00 | 0.00 | 99 | 1016.2 |
| 20260508110329 | 8 | 357 | 0.0 | 0.0 | 0.00 | 0.00 | 0.00 | 99 | 1016.0 |
| 20260508105829 | 8 | 2 | 0.0 | 0.0 | 0.00 | 0.00 | 0.00 | 99 | 1016.1 |
| 20260508105326 | 8 | 2 | 0.0 | 0.0 | 0.00 | 0.00 | 0.00 | 99 | 1015.9 |
| 20260508104823 | 8 | 12 | 0.0 | 0.0 | 0.00 | 0.00 | 0.00 | 99 | 1016.0 |
| 20260508104320 | 8 | 12 | 0.0 | 0.0 | 0.00 | 0.00 | 0.00 | 99 | 1016.0 |
| 20260508103817 | 8 | 12 | 0.0 | 0.0 | 0.00 | 0.00 | 0.00 | 99 | 1015.8 |
| 20260508103314 | 8 | 12 | 0.0 | 0.0 | 0.00 | 0.00 | 0.00 | 99 | 1015.7 |
| 20260508102811 | 8 | 12 | 0.0 | 0.0 | 0.00 | 0.00 | 0.00 | 99 | 1015.6 |
| 20260508102309 | 8 | 12 | 0.0 | 0.0 | 0.00 | 0.00 | 0.00 | 99 | 1015.5 |
| 20260508101806 | 8 | 12 | 0.0 | 0.0 | 0.00 | 0.00 | 0.00 | 99 | 1015.4 |
| 20260508101304 | 8 | 12 | 0.0 | 0.0 | 0.00 | 0.00 | 0.00 | 99 | 1015.4 |
| 20260508100801 | 8 | 12 | 0.0 | 0.0 | 0.00 | 0.00 | 0.00 | 99 | 1015.3 |
| 20260508100300 | 9 | 12 | 0.0 | 0.0 | 0.00 | 0.00 | 0.00 | 99 | 1015.3 |
| 20260508095755 | 9 | 12 | 0.0 | 0.0 | 0.00 | 0.00 | 0.00 | 99 | 1015.2 |
| 20260508095253 | 9 | 12 | 0.0 | 0.0 | 0.00 | 0.00 | 0.00 | 99 | 1015.2 |
| 20260508094749 | 9 | 12 | 0.0 | 0.0 | 0.00 | 0.00 | 0.00 | 99 | 1015.4 |
| 20260508094246 | 9 | 12 | 0.0 | 0.0 | 0.00 | 0.00 | 0.00 | 99 | 1015.3 |
| 20260508093743 | 9 | 12 | 0.0 | 0.0 | 0.00 | 0.00 | 0.00 | 99 | 1015.1 |
| 20260508093241 | 9 | 12 | 0.0 | 0.0 | 0.00 | 0.00 | 0.00 | 99 | 1015.1 |
| 20260508092738 | 9 | 12 | 0.0 | 0.0 | 0.00 | 0.00 | 0.00 | 99 | 1015.2 |
| 20260508092236 | 9 | 12 | 0.0 | 0.0 | 0.00 | 0.00 | 0.00 | 99 | 1015.0 |
| 20260508091734 | 10 | 12 | 0.0 | 0.0 | 0.00 | 0.00 | 0.00 | 99 | 1015.2 |
| 20260508091230 | 10 | 12 | 0.0 | 0.0 | 0.00 | 0.00 | 0.00 | 99 | 1015.0 |
| 20260508090728 | 10 | 12 | 0.0 | 0.0 | 0.00 | 0.00 | 0.00 | 99 | 1014.7 |
| 20260508090226 | 10 | 12 | 0.0 | 0.0 | 0.00 | 0.00 | 0.00 | 99 | 1014.6 |
| 20260508085721 | 10 | 12 | 0.0 | 0.0 | 0.00 | 0.00 | 0.00 | 99 | 1015.1 |
| 20260508085219 | 10 | 12 | 0.0 | 0.0 | 0.00 | 0.00 | 0.00 | 99 | 1015.0 |
| 20260508084714 | 10 | 12 | 0.0 | 0.0 | 0.00 | 0.00 | 0.00 | 99 | 1015.1 |
| 20260508084213 | 10 | 12 | 0.0 | 0.0 | 0.00 | 0.00 | 0.00 | 99 | 1014.6 |
| 20260508083710 | 10 | 12 | 0.0 | 0.0 | 0.00 | 0.00 | 0.00 | 99 | 1014.6 |
| 20260508083207 | 10 | 12 | 0.0 | 0.0 | 0.00 | 0.00 | 0.00 | 99 | 1014.8 |
| 20260508082702 | 10 | 12 | 0.0 | 0.0 | 0.00 | 0.00 | 0.00 | 99 | 1014.6 |
| 20260508082200 | 10 | 12 | 0.0 | 0.0 | 0.00 | 0.00 | 0.00 | 99 | 1014.6 |
| 20260508081657 | 10 | 12 | 0.0 | 0.0 | 0.00 | 0.00 | 0.00 | 99 | 1014.5 |
| 20260508081153 | 10 | 12 | 0.0 | 0.0 | 0.00 | 0.00 | 0.00 | 99 | 1014.5 |
| 20260508080650 | 10 | 10 | 0.0 | 0.0 | 0.00 | 0.00 | 0.00 | 98 | 1014.4 |
| 20260508080149 | 10 | 10 | 0.0 | 0.0 | 0.00 | 0.00 | 0.00 | 98 | 1014.6 |
| 20260508075645 | 10 | 10 | 0.0 | 0.0 | 0.00 | 0.00 | 0.00 | 98 | 1014.3 |
| 20260508075142 | 10 | 10 | 0.0 | 0.0 | 0.00 | 0.00 | 0.00 | 98 | 1014.3 |
| 20260508074640 | 10 | 10 | 0.0 | 0.0 | 0.00 | 0.00 | 0.00 | 98 | 1014.2 |
| 20260508074136 | 10 | 10 | 0.0 | 0.0 | 0.00 | 0.00 | 0.00 | 98 | 1014.2 |
| 20260508073633 | 10 | 10 | 0.0 | 0.0 | 0.00 | 0.00 | 0.00 | 98 | 1014.5 |
| 20260508073131 | 10 | 10 | 0.0 | 0.0 | 0.00 | 0.00 | 0.00 | 98 | 1014.3 |
| 20260508072627 | 10 | 10 | 0.0 | 0.0 | 0.00 | 0.00 | 0.00 | 98 | 1014.2 |
| 20260508072124 | 10 | 10 | 0.0 | 0.0 | 0.00 | 0.00 | 0.00 | 97 | 1014.3 |
| 20260508071621 | 10 | 10 | 0.0 | 0.0 | 0.00 | 0.00 | 0.00 | 97 | 1014.4 |
| 20260508071120 | 10 | 10 | 0.0 | 0.0 | 0.00 | 0.00 | 0.00 | 96 | 1014.5 |
| 20260508070617 | 10 | 10 | 0.0 | 0.0 | 0.00 | 0.00 | 0.00 | 95 | 1014.1 |
| 20260508070116 | 10 | 10 | 0.0 | 0.0 | 0.00 | 0.00 | 0.00 | 94 | 1014.2 |
| 20260508065612 | 10 | 10 | 0.0 | 0.0 | 0.00 | 0.00 | 0.00 | 94 | 1014.1 |
| 20260508065110 | 10 | 10 | 0.0 | 0.0 | 0.00 | 0.00 | 0.00 | 93 | 1013.9 |
| 20260508064608 | 11 | 10 | 0.0 | 0.0 | 0.00 | 0.00 | 0.00 | 93 | 1014.1 |
| 20260508064106 | 11 | 10 | 0.0 | 0.0 | 0.00 | 0.00 | 0.00 | 92 | 1014.0 |
| 20260508063603 | 11 | 10 | 0.0 | 0.0 | 0.00 | 0.00 | 0.00 | 91 | 1014.0 |
| 20260508063101 | 11 | 11 | 0.0 | 0.0 | 0.00 | 0.00 | 0.00 | 92 | 1014.0 |
| 20260508062558 | 11 | 11 | 0.0 | 1.6 | 0.00 | 0.00 | 0.00 | 91 | 1014.0 |
| 20260508062054 | 11 | 11 | 0.0 | 0.0 | 0.00 | 0.00 | 0.00 | 91 | 1013.9 |
| 20260508061552 | 11 | 11 | 0.0 | 0.0 | 0.00 | 0.00 | 0.00 | 90 | 1014.0 |
| 20260508061049 | 11 | 11 | 0.0 | 1.6 | 0.00 | 0.00 | 0.00 | 90 | 1014.1 |
| 20260508060545 | 11 | 11 | 0.0 | 1.6 | 0.00 | 0.00 | 0.00 | 90 | 1014.1 |
| 20260508060043 | 11 | 10 | 0.0 | 0.0 | 0.00 | 0.00 | 0.00 | 91 | 1014.2 |
| 20260508055538 | 11 | 10 | 0.0 | 0.0 | 0.00 | 0.00 | 0.00 | 91 | 1014.2 |
| 20260508055036 | 11 | 10 | 0.0 | 1.6 | 0.00 | 0.00 | 0.00 | 91 | 1014.2 |
| 20260508054532 | 11 | 5 | 0.0 | 0.0 | 0.00 | 0.00 | 0.00 | 92 | 1014.2 |
| 20260508054030 | 11 | 5 | 0.0 | 0.0 | 0.00 | 0.00 | 0.00 | 91 | 1014.0 |
| 20260508053526 | 11 | 1 | 0.0 | 0.0 | 0.00 | 0.00 | 0.00 | 93 | 1014.2 |
| 20260508053025 | 11 | 0 | 0.0 | 0.0 | 0.00 | 0.00 | 0.00 | 93 | 1014.1 |
| 20260508052521 | 11 | 0 | 0.0 | 0.0 | 0.00 | 0.00 | 0.00 | 93 | 1014.0 |
| 20260508052018 | 11 | 0 | 0.0 | 0.0 | 0.00 | 0.00 | 0.00 | 93 | 1013.9 |
| 20260508051515 | 11 | 0 | 0.0 | 1.6 | 0.00 | 0.00 | 0.00 | 92 | 1014.1 |
| 20260508051009 | 11 | 352 | 0.0 | 0.0 | 0.00 | 0.00 | 0.00 | 91 | 1013.8 |
| 20260508050506 | 11 | 352 | 0.0 | 0.0 | 0.00 | 0.00 | 0.00 | 91 | 1014.1 |
| 20260508050004 | 12 | 352 | 0.0 | 0.0 | 0.00 | 0.00 | 0.00 | 91 | 1014.0 |
| 20260508045500 | 12 | 352 | 0.0 | 0.0 | 0.00 | 0.00 | 0.00 | 90 | 1013.9 |
| 20260508044958 | 12 | 353 | 0.0 | 0.0 | 0.00 | 0.00 | 0.00 | 88 | 1013.9 |
| 20260508044455 | 12 | 351 | 0.0 | 0.0 | 0.00 | 0.00 | 0.00 | 86 | 1013.9 |
| 20260508043950 | 12 | 351 | 0.0 | 0.0 | 0.00 | 0.00 | 0.00 | 86 | 1014.0 |
| 20260508043448 | 12 | 350 | 0.0 | 0.0 | 0.00 | 0.00 | 0.00 | 85 | 1013.8 |
| 20260508042943 | 12 | 350 | 0.0 | 0.0 | 0.00 | 0.00 | 0.00 | 85 | 1013.6 |
| 20260508042441 | 12 | 350 | 0.0 | 0.0 | 0.00 | 0.00 | 0.00 | 86 | 1013.7 |
| 20260508041938 | 13 | 349 | 0.0 | 0.0 | 0.00 | 0.00 | 0.00 | 84 | 1013.7 |
| 20260508041435 | 13 | 349 | 0.0 | 0.0 | 0.00 | 0.00 | 0.00 | 83 | 1013.6 |
| 20260508040931 | 13 | 351 | 0.0 | 0.0 | 0.00 | 0.00 | 0.00 | 82 | 1013.6 |
| 20260508040429 | 13 | 339 | 0.0 | 0.0 | 0.00 | 0.00 | 0.00 | 81 | 1013.7 |
| 20260508035926 | 13 | 349 | 0.0 | 0.0 | 0.00 | 1.57 | 1.57 | 80 | 1013.6 |
| 20260508035423 | 13 | 350 | 0.0 | 0.0 | 0.00 | 1.57 | 1.57 | 80 | 1013.5 |
| 20260508034920 | 14 | 344 | 0.0 | 0.0 | 0.00 | 1.57 | 1.57 | 80 | 1013.6 |
| 20260508034417 | 14 | 4 | 0.0 | 0.0 | 0.00 | 1.57 | 1.57 | 79 | 1013.7 |
| 20260508033914 | 14 | 337 | 0.0 | 0.0 | 0.00 | 1.57 | 1.57 | 79 | 1013.5 |
| 20260508033412 | 13 | 338 | 0.0 | 1.6 | 0.00 | 1.57 | 1.57 | 80 | 1013.6 |
| 20260508032909 | 14 | 336 | 0.0 | 0.0 | 0.00 | 1.57 | 1.57 | 80 | 1013.6 |
| 20260508032406 | 14 | 0 | 1.6 | 3.2 | 0.00 | 1.57 | 1.57 | 80 | 1013.4 |
| 20260508031903 | 14 | 0 | 0.0 | 0.0 | 0.00 | 1.57 | 1.57 | 80 | 1013.5 |
| 20260508031401 | 14 | 13 | 0.0 | 0.0 | 0.00 | 1.57 | 1.57 | 80 | 1013.5 |
| 20260508030856 | 14 | 13 | 0.0 | 0.0 | 0.00 | 1.57 | 1.57 | 80 | 1013.4 |
| 20260508030353 | 14 | 3 | 0.0 | 1.6 | 0.00 | 1.57 | 1.57 | 80 | 1013.4 |
| 20260508025850 | 15 | 2 | 0.0 | 1.6 | 0.00 | 1.57 | 1.57 | 79 | 1013.4 |
| 20260508025347 | 15 | 1 | 0.0 | 0.0 | 0.00 | 1.57 | 1.57 | 79 | 1013.5 |
| 20260508024844 | 15 | 358 | 0.0 | 0.0 | 0.00 | 1.57 | 1.57 | 80 | 1013.1 |
| 20260508024341 | 15 | 1 | 0.0 | 1.6 | 0.00 | 1.57 | 1.57 | 79 | 1013.2 |
| 20260508023837 | 15 | 338 | 0.0 | 0.0 | 0.00 | 1.57 | 1.57 | 80 | 1013.2 |
| 20260508023334 | 15 | 321 | 0.0 | 1.6 | 0.00 | 1.57 | 1.57 | 80 | 1013.2 |
| 20260508022831 | 15 | 338 | 0.0 | 0.0 | 0.00 | 1.57 | 1.57 | 81 | 1013.1 |
| 20260508022326 | 15 | 337 | 0.0 | 1.6 | 0.00 | 1.57 | 1.57 | 78 | 1013.1 |
| 20260508021824 | 15 | 352 | 0.0 | 0.0 | 0.00 | 1.57 | 1.57 | 78 | 1013.1 |
| 20260508021319 | 15 | 307 | 0.0 | 1.6 | 0.00 | 1.57 | 1.57 | 78 | 1012.9 |
| 20260508020816 | 15 | 346 | 0.0 | 1.6 | 0.00 | 1.57 | 1.57 | 78 | 1013.1 |
| 20260508020314 | 15 | 4 | 0.0 | 1.6 | 0.00 | 1.57 | 1.57 | 78 | 1012.8 |
| 20260508015811 | 16 | 347 | 0.0 | 1.6 | 0.00 | 1.57 | 1.57 | 78 | 1012.9 |
| 20260508015309 | 16 | 328 | 0.0 | 1.6 | 0.00 | 1.57 | 1.57 | 78 | 1012.7 |
| 20260508014805 | 16 | 6 | 3.2 | 3.2 | 0.00 | 1.57 | 1.57 | 80 | 1012.5 |
| 20260508014302 | 15 | 315 | 6.4 | 9.7 | 0.00 | 1.57 | 1.57 | 80 | 1012.5 |
| 20260508013757 | 16 | 340 | 0.0 | 1.6 | 0.00 | 1.57 | 1.57 | 85 | 1012.4 |
| 20260508013254 | 16 | 331 | 0.0 | 1.6 | 0.00 | 1.57 | 1.57 | 85 | 1012.0 |
| 20260508012752 | 15 | 333 | 0.0 | 4.8 | 0.00 | 1.57 | 1.57 | 87 | 1012.1 |
| 20260508012249 | 15 | 324 | 0.0 | 1.6 | 0.00 | 1.57 | 1.57 | 91 | 1012.0 |
| 20260508011747 | 16 | 343 | 0.0 | 1.6 | 0.00 | 1.57 | 1.57 | 97 | 1011.8 |
| 20260508011244 | 16 | 317 | 0.0 | 0.0 | 0.00 | 1.57 | 1.57 | 97 | 1011.8 |
| 20260508010741 | 16 | 339 | 0.0 | 0.0 | 0.00 | 1.57 | 1.57 | 96 | 1012.0 |
| 20260508010238 | 16 | 350 | 0.0 | 0.0 | 0.00 | 1.57 | 1.57 | 96 | 1011.6 |
| 20260508005735 | 16 | 351 | 0.0 | 1.6 | 0.00 | 1.57 | 1.57 | 96 | 1011.5 |
| 20260508005232 | 16 | 358 | 0.0 | 0.0 | 0.00 | 1.57 | 1.57 | 96 | 1011.5 |
| 20260508004727 | 16 | 359 | 0.0 | 0.0 | 0.00 | 1.57 | 1.57 | 96 | 1011.6 |
| 20260508004224 | 16 | 288 | 0.0 | 0.0 | 0.00 | 1.57 | 1.57 | 96 | 1011.4 |
| 20260508003721 | 16 | 300 | 0.0 | 0.0 | 0.00 | 1.57 | 1.57 | 96 | 1011.1 |
| 20260508003218 | 16 | 318 | 0.0 | 0.0 | 0.00 | 1.57 | 1.57 | 96 | 1010.9 |
| 20260508002715 | 16 | 342 | 0.0 | 1.6 | 0.00 | 1.57 | 1.57 | 96 | 1010.6 |
| 20260508002212 | 16 | 7 | 1.6 | 1.6 | 0.00 | 1.57 | 1.57 | 95 | 1010.6 |
| 20260508001708 | 16 | 318 | 0.0 | 1.6 | 0.00 | 1.57 | 1.57 | 95 | 1010.6 |
| 20260508001203 | 16 | 327 | 0.0 | 1.6 | 0.00 | 1.57 | 1.57 | 94 | 1010.7 |
| 20260508000700 | 16 | 305 | 0.0 | 0.0 | 0.00 | 1.57 | 1.57 | 94 | 1010.5 |
| 20260508000157 | 17 | 324 | 0.0 | 1.6 | 0.00 | 1.57 | 1.57 | 94 | 1010.1 |
| 20260507235653 | 17 | 351 | 0.0 | 1.6 | 0.00 | 1.57 | 1.57 | 93 | 1010.2 |
| 20260507235151 | 17 | 39 | 1.6 | 8.0 | 0.00 | 1.57 | 1.57 | 92 | 1010.2 |
| 20260507234648 | 17 | 92 | 1.6 | 8.0 | 0.00 | 1.57 | 1.57 | 92 | 1010.3 |
| 20260507234144 | 17 | 277 | 3.2 | 4.8 | 0.00 | 1.57 | 1.57 | 92 | 1010.0 |
| 20260507233641 | 17 | 17 | 4.8 | 8.0 | 0.00 | 1.57 | 1.57 | 92 | 1010.0 |
| 20260507233139 | 17 | 6 | 0.0 | 4.8 | 0.00 | 1.57 | 1.57 | 92 | 1009.8 |
| 20260507232636 | 17 | 344 | 3.2 | 9.7 | 0.00 | 1.57 | 1.57 | 92 | 1009.9 |
| 20260507232133 | 17 | 322 | 0.0 | 3.2 | 0.00 | 1.57 | 1.57 | 92 | 1009.7 |
| 20260507231629 | 17 | 340 | 0.0 | 3.2 | 0.00 | 1.57 | 1.57 | 92 | 1009.8 |
| 20260507231127 | 17 | 344 | 0.0 | 3.2 | 0.00 | 1.57 | 1.57 | 92 | 1009.6 |
| 20260507230623 | 17 | 16 | 1.6 | 1.6 | 0.00 | 1.57 | 1.57 | 92 | 1009.6 |
| 20260507230120 | 18 | 141 | 4.8 | 4.8 | 0.00 | 1.57 | 1.57 | 92 | 1009.5 |
| 20260507225615 | 18 | 49 | 3.2 | 8.0 | 0.00 | 1.57 | 1.57 | 91 | 1009.1 |
| 20260507225111 | 18 | 84 | 1.6 | 4.8 | 0.00 | 1.57 | 1.57 | 91 | 1009.2 |
| 20260507224607 | 18 | 333 | 1.6 | 9.7 | 0.00 | 1.57 | 1.57 | 91 | 1008.8 |
| 20260507224104 | 18 | 18 | 3.2 | 9.7 | 0.00 | 1.57 | 1.57 | 90 | 1008.6 |
| 20260507223600 | 18 | 35 | 6.4 | 12.9 | 0.00 | 1.57 | 1.57 | 89 | 1008.7 |
| 20260507223057 | 18 | 335 | 1.6 | 8.0 | 0.00 | 1.57 | 1.57 | 90 | 1008.5 |
| 20260507222554 | 19 | 47 | 3.2 | 16.1 | 0.00 | 1.57 | 1.57 | 91 | 1008.4 |
| 20260507222050 | 19 | 6 | 3.2 | 9.7 | 0.00 | 1.57 | 1.57 | 92 | 1008.6 |
| 20260507221547 | 18 | 311 | 1.6 | 8.0 | 0.00 | 1.57 | 1.57 | 93 | 1008.4 |
| 20260507221044 | 19 | 321 | 3.2 | 9.7 | 0.00 | 1.57 | 1.57 | 92 | 1008.2 |
| 20260507220541 | 20 | 228 | 6.4 | 11.3 | 0.00 | 1.57 | 1.57 | 91 | 1008.3 |
| 20260507220038 | 21 | 0 | 4.8 | 12.9 | 0.00 | 1.57 | 1.57 | 89 | 1008.0 |
| 20260507215534 | 23 | 334 | 4.8 | 20.9 | 0.00 | 1.57 | 1.57 | 83 | 1007.9 |
| 20260507215033 | 23 | 320 | 0.0 | 1.6 | 0.00 | 1.57 | 1.57 | 79 | 1007.6 |
| 20260507214530 | 23 | 299 | 1.6 | 8.0 | 0.00 | 1.57 | 1.57 | 75 | 1007.1 |
| 20260507214025 | 24 | 319 | 0.0 | 4.8 | 0.00 | 1.57 | 1.57 | 75 | 1007.1 |
| 20260507213522 | 25 | 257 | 3.2 | 4.8 | 0.00 | 1.57 | 1.57 | 72 | 1007.1 |
| 20260507213019 | 24 | 327 | 0.0 | 3.2 | 0.00 | 1.57 | 1.57 | 74 | 1006.9 |
| 20260507212515 | 24 | 275 | 1.6 | 4.8 | 0.00 | 1.57 | 1.57 | 75 | 1006.8 |
| 20260507212012 | 24 | 269 | 4.8 | 11.3 | 0.00 | 1.57 | 1.57 | 73 | 1006.8 |
| 20260507211509 | 24 | 243 | 6.4 | 9.7 | 0.00 | 1.57 | 1.57 | 75 | 1006.7 |
| 20260507211005 | 24 | 255 | 6.4 | 12.9 | 0.00 | 1.57 | 1.57 | 74 | 1006.6 |
| 20260507210502 | 24 | 49 | 4.8 | 9.7 | 0.00 | 1.57 | 1.57 | 75 | 1006.6 |
| 20260507205959 | 24 | 318 | 1.6 | 4.8 | 0.00 | 1.57 | 1.57 | 76 | 1006.8 |
| 20260507205455 | 24 | 263 | 1.6 | 8.0 | 0.00 | 1.57 | 1.57 | 73 | 1006.6 |
| 20260507204951 | 25 | 285 | 4.8 | 12.9 | 0.00 | 1.57 | 1.57 | 74 | 1006.4 |
| 20260507204448 | 25 | 261 | 4.8 | 4.8 | 0.00 | 1.57 | 1.57 | 74 | 1006.6 |
| 20260507203946 | 25 | 256 | 4.8 | 9.7 | 0.00 | 1.57 | 1.57 | 71 | 1006.6 |
| 20260507203443 | 25 | 254 | 4.8 | 8.0 | 0.00 | 1.57 | 1.57 | 73 | 1006.8 |
| 20260507202939 | 22 | 321 | 0.0 | 1.6 | 0.00 | 1.57 | 1.57 | 79 | 1006.9 |
| 20260507202436 | 23 | 297 | 0.0 | 0.0 | 0.00 | 1.57 | 1.57 | 76 | 1006.8 |
| 20260507201932 | 24 | 308 | 1.6 | 1.6 | 0.00 | 1.57 | 1.57 | 74 | 1006.9 |
| 20260507201427 | 25 | 301 | 3.2 | 4.8 | 0.00 | 1.57 | 1.57 | 75 | 1006.9 |
| 20260507200924 | 23 | 304 | 1.6 | 3.2 | 0.00 | 1.57 | 1.57 | 75 | 1006.8 |
| 20260507200420 | 24 | 262 | 1.6 | 4.8 | 0.00 | 1.57 | 1.57 | 72 | 1006.9 |
| 20260507195916 | 23 | 248 | 4.8 | 4.8 | 0.00 | 1.57 | 1.57 | 72 | 1006.8 |
| 20260507195414 | 25 | 300 | 3.2 | 3.2 | 0.00 | 1.57 | 1.57 | 72 | 1006.9 |
| 20260507194911 | 24 | 254 | 0.0 | 3.2 | 0.00 | 1.57 | 1.57 | 72 | 1007.0 |
| 20260507194407 | 24 | 259 | 4.8 | 8.0 | 0.00 | 1.57 | 1.57 | 70 | 1007.2 |
| 20260507193903 | 23 | 20 | 3.2 | 4.8 | 0.00 | 1.57 | 1.57 | 74 | 1007.2 |
| 20260507193400 | 23 | 314 | 1.6 | 3.2 | 0.00 | 1.57 | 1.57 | 75 | 1007.3 |
| 20260507192857 | 25 | 313 | 1.6 | 8.0 | 0.00 | 1.57 | 1.57 | 71 | 1007.2 |
| 20260507192353 | 24 | 309 | 1.6 | 1.6 | 0.00 | 1.57 | 1.57 | 74 | 1007.3 |
| 20260507191850 | 23 | 313 | 0.0 | 3.2 | 0.00 | 1.57 | 1.57 | 71 | 1007.3 |
| 20260507191346 | 23 | 313 | 1.6 | 4.8 | 0.00 | 1.57 | 1.57 | 76 | 1007.8 |
| 20260507190843 | 23 | 263 | 3.2 | 4.8 | 0.00 | 1.57 | 1.57 | 72 | 1007.8 |
| 20260507190341 | 23 | 263 | 3.2 | 4.8 | 0.00 | 1.57 | 1.57 | 74 | 1007.9 |
| 20260507185839 | 23 | 311 | 0.0 | 1.6 | 0.00 | 1.57 | 1.57 | 75 | 1007.6 |
| 20260507185336 | 23 | 283 | 3.2 | 3.2 | 0.00 | 1.57 | 1.57 | 76 | 1007.9 |
| 20260507184833 | 23 | 275 | 3.2 | 3.2 | 0.00 | 1.57 | 1.57 | 75 | 1007.8 |
| 20260507184331 | 23 | 256 | 1.6 | 8.0 | 0.00 | 1.57 | 1.57 | 76 | 1007.8 |
| 20260507183827 | 23 | 297 | 1.6 | 3.2 | 0.00 | 1.57 | 1.57 | 75 | 1008.0 |
| 20260507183325 | 22 | 284 | 3.2 | 3.2 | 0.00 | 1.57 | 1.57 | 78 | 1008.0 |
| 20260507182822 | 22 | 299 | 1.6 | 4.8 | 0.00 | 1.57 | 1.57 | 79 | 1008.2 |
| 20260507182318 | 22 | 276 | 3.2 | 3.2 | 0.00 | 1.57 | 1.57 | 82 | 1008.1 |
| 20260507181814 | 21 | 299 | 1.6 | 4.8 | 0.00 | 1.57 | 1.57 | 80 | 1008.1 |
| 20260507181310 | 21 | 306 | 1.6 | 1.6 | 0.00 | 1.57 | 1.57 | 82 | 1008.1 |
| 20260507180807 | 22 | 263 | 3.2 | 4.8 | 0.00 | 1.57 | 1.57 | 78 | 1008.1 |
| 20260507180304 | 22 | 309 | 1.6 | 3.2 | 0.00 | 1.57 | 1.57 | 83 | 1007.9 |
| 20260507175759 | 22 | 269 | 4.8 | 8.0 | 0.00 | 1.57 | 1.57 | 83 | 1008.0 |
| 20260507175257 | 22 | 289 | 1.6 | 3.2 | 0.00 | 1.57 | 1.57 | 84 | 1008.0 |
| 20260507174754 | 22 | 267 | 3.2 | 3.2 | 0.00 | 1.57 | 1.57 | 82 | 1008.1 |
| 20260507174252 | 21 | 306 | 1.6 | 3.2 | 0.00 | 1.57 | 1.57 | 86 | 1008.1 |
| 20260507173749 | 21 | 325 | 3.2 | 4.8 | 0.00 | 1.57 | 1.57 | 90 | 1008.4 |
| 20260507173246 | 21 | 268 | 3.2 | 4.8 | 0.00 | 1.57 | 1.57 | 87 | 1008.4 |
| 20260507172742 | 21 | 325 | 1.6 | 4.8 | 0.00 | 1.57 | 1.57 | 92 | 1008.5 |
| 20260507172240 | 21 | 270 | 4.8 | 4.8 | 0.00 | 1.57 | 1.57 | 91 | 1008.5 |
| 20260507171735 | 20 | 320 | 1.6 | 4.8 | 0.00 | 1.57 | 1.57 | 96 | 1008.8 |
| 20260507171232 | 20 | 336 | 1.6 | 4.8 | 0.00 | 1.57 | 1.57 | 98 | 1008.7 |
| 20260507170729 | 18 | 261 | 4.8 | 4.8 | 0.00 | 1.57 | 1.57 | 99 | 1008.7 |
| 20260507170226 | 18 | 264 | 3.2 | 3.2 | 0.00 | 1.57 | 1.57 | 99 | 1008.6 |
| 20260507165721 | 18 | 308 | 1.6 | 3.2 | 0.00 | 1.57 | 1.57 | 99 | 1008.6 |